Date,TemperatureHighF,TemperatureAvgF,TemperatureLowF,DewpointHighF,DewpointAvgF,DewpointLowF,HumidityHigh,HumidityAvg,HumidityLow,PressureMaxIn,PressureMinIn,WindSpeedMaxMPH,WindSpeedAvgMPH,GustSpeedMaxMPH,PrecipitationSumIn
2013-1-1,34,32,28,33,29,20,98,90,73,0.00,40.00,5,3,11,0.08
2013-1-2,35,26,18,21,18,14,94,72,49,0.00,40.00,4,1,9,0.01
2013-1-3,38,27,18,23,16,12,86,67,43,0.00,40.00,6,3,13,0.00
2013-1-4,38,31,27,24,22,21,79,69,55,0.00,40.00,8,5,23,0.00
2013-1-5,44,33,22,27,24,20,91,71,46,0.00,40.00,6,3,13,0.00
2013-1-6,40,34,28,32,27,20,78,74,69,0.00,40.00,7,5,24,0.00
2013-1-7,42,32,22,25,23,20,92,71,50,0.00,40.00,6,3,11,0.00
2013-1-8,54,39,27,32,28,22,83,64,41,0.00,40.00,7,4,17,0.00
2013-1-9,54,45,40,45,38,31,96,77,65,0.00,40.00,6,3,14,0.04
2013-1-10,45,40,34,41,35,30,95,83,64,0.00,40.00,11,6,16,0.22
2013-1-11,64,55,45,55,49,41,98,82,58,0.00,40.00,9,6,17,0.53
2013-1-12,66,61,55,62,59,52,97,92,84,0.00,40.00,9,4,20,0.14
2013-1-13,65,55,35,59,53,33,98,93,75,0.00,40.00,11,6,27,1.24
2013-1-14,35,28,24,33,22,20,93,81,71,0.00,40.00,6,3,13,0.09
2013-1-15,31,27,23,28,22,19,95,82,69,0.00,40.00,9,6,15,0.01
2013-1-16,33,31,29,30,28,27,95,91,82,0.00,40.00,5,3,10,0.05
2013-1-17,40,32,28,28,26,21,92,80,62,0.00,40.00,6,3,12,0.19
2013-1-18,40,30,18,23,18,15,89,63,42,0.00,40.00,8,4,19,0.02
2013-1-19,55,44,35,27,24,21,61,46,29,0.00,40.00,11,8,24,0.01
2013-1-20,45,36,25,33,16,6,72,46,26,0.00,40.00,8,5,20,0.00
2013-1-21,26,22,13,16,8,-3,74,57,37,0.00,40.00,9,5,21,0.00
2013-1-22,20,13,6,0,-3,-6,63,49,31,0.00,40.00,7,4,17,0.00
2013-1-23,25,17,9,9,3,-2,75,54,45,0.00,40.00,5,3,10,0.00
2013-1-24,25,20,15,12,2,-5,65,46,27,0.00,40.00,9,5,23,0.00
2013-1-25,26,22,19,21,12,2,87,68,47,0.00,40.00,8,5,15,0.00
2013-1-26,34,26,19,21,18,15,93,73,50,0.00,40.00,5,4,13,0.02
2013-1-27,40,30,19,37,21,14,96,71,46,0.00,40.00,8,5,13,0.18
2013-1-28,53,48,38,52,46,37,98,92,75,0.00,40.00,10,6,22,0.38
2013-1-29,65,59,52,57,54,50,95,82,70,0.00,40.00,11,7,25,0.01
2013-1-30,67,53,33,57,48,27,98,84,70,0.00,40.00,13,8,33,0.80
2013-1-31,31,27,19,24,18,10,92,69,53,0.00,40.00,12,8,31,0.15
2013-2-1,20,13,5,15,2,-3,88,63,46,0.00,40.00,8,5,22,0.03
2013-2-2,32,23,11,26,17,4,90,80,63,0.00,40.00,7,4,19,0.13
2013-2-3,28,24,18,22,17,13,90,75,63,0.00,40.00,6,4,14,0.02
2013-2-4,39,28,17,35,23,14,97,84,51,0.00,40.00,7,4,15,0.23
2013-2-5,42,36,31,37,32,29,99,86,69,0.00,40.00,5,3,12,0.14
2013-2-6,40,35,30,31,28,26,85,75,61,0.00,40.00,7,3,11,0.01
2013-2-7,64,44,31,35,30,26,86,63,31,0.00,40.00,7,5,12,0.00
2013-2-8,50,38,32,46,32,23,97,80,52,0.00,40.00,10,6,20,0.10
2013-2-9,43,33,23,23,18,16,76,56,33,0.00,40.00,7,4,12,0.01
2013-2-10,57,43,31,45,30,18,88,61,31,0.00,40.00,10,7,26,0.04
2013-2-11,53,48,39,50,35,25,94,63,41,0.00,40.00,13,8,28,0.03
2013-2-12,51,39,28,27,24,21,86,58,33,0.00,40.00,5,3,13,0.00
2013-2-13,37,33,30,32,28,24,94,82,60,0.00,40.00,6,4,12,0.07
2013-2-14,53,40,29,36,32,27,95,74,43,0.00,40.00,10,6,20,0.01
2013-2-15,41,34,27,32,27,20,83,73,53,0.00,40.00,8,3,16,0.01
2013-2-16,31,24,20,21,15,8,92,69,45,0.00,40.00,8,4,18,0.00
2013-2-17,33,23,13,14,7,0,86,53,25,0.00,40.00,4,3,11,0.00
2013-2-18,59,41,22,37,21,4,72,45,34,0.00,40.00,12,7,34,0.06
2013-2-19,46,34,25,40,25,11,94,71,52,0.00,40.00,11,8,26,0.34
2013-2-20,32,24,19,12,11,9,66,56,39,0.00,40.00,7,5,21,0.01
2013-2-21,33,25,15,23,16,11,87,70,54,0.00,40.00,11,6,21,0.01
2013-2-22,46,37,29,41,34,26,98,91,78,0.00,40.00,10,4,18,0.27
2013-2-23,47,37,31,34,27,22,96,70,40,0.00,40.00,6,3,11,0.02
2013-2-24,45,33,24,24,22,21,88,66,41,0.00,40.00,6,3,11,0.00
2013-2-25,47,35,24,23,21,19,84,58,36,0.00,40.00,10,7,20,0.00
2013-2-26,50,41,35,48,35,21,96,81,49,0.00,40.00,12,8,23,0.55
2013-2-27,40,36,33,38,33,28,95,87,71,0.00,40.00,9,7,22,0.06
2013-2-28,35,33,31,33,30,28,96,88,84,0.00,40.00,6,5,17,0.03
2013-3-1,37,33,31,34,32,25,97,95,86,0.00,40.00,5,2,9,0.11
2013-3-2,30,28,26,25,22,19,91,78,69,0.00,40.00,3,0,11,0.03
2013-3-3,34,28,23,23,18,15,85,68,54,0.00,40.00,8,2,17,0.02
2013-3-4,41,31,20,25,18,15,82,61,41,0.00,40.00,7,3,13,0.02
2013-3-5,40,36,29,37,30,23,98,79,55,0.00,40.00,9,7,20,0.26
2013-3-6,32,29,28,29,28,26,97,93,86,0.00,40.00,7,5,23,0.13
2013-3-7,37,32,29,31,29,26,96,87,71,0.00,40.00,4,2,8,0.21
2013-3-8,45,35,25,27,24,21,87,66,44,0.00,40.00,7,3,11,0.01
2013-3-9,59,44,29,31,28,25,87,59,33,0.00,40.00,8,5,14,0.00
2013-3-10,67,60,52,33,30,27,43,34,25,0.00,40.00,9,6,20,0.03
2013-3-11,57,48,38,53,44,32,98,86,51,0.00,40.00,9,6,26,1.24
2013-3-12,47,38,32,32,28,22,88,67,44,0.00,40.00,7,5,18,0.01
2013-3-13,36,31,26,29,22,17,88,72,53,0.00,40.00,8,6,19,0.01
2013-3-14,45,32,20,21,17,11,89,58,26,0.00,40.00,6,3,15,0.00
2013-3-15,55,42,30,37,32,25,88,68,49,0.00,40.00,6,4,14,0.00
2013-3-16,68,52,40,49,42,34,91,70,49,0.00,40.00,10,7,23,0.01
2013-3-17,40,34,32,34,31,29,96,89,78,0.00,40.00,10,6,17,0.49
2013-3-18,49,40,33,49,39,32,99,96,86,0.00,40.00,11,7,20,1.03
2013-3-19,47,38,30,34,22,12,89,57,25,0.00,40.00,10,6,33,0.01
2013-3-20,41,33,24,20,15,8,70,48,33,0.00,40.00,9,6,24,0.00
2013-3-21,34,25,18,14,9,5,75,53,32,0.00,40.00,7,3,15,0.00
2013-3-22,47,32,19,14,11,8,67,44,23,0.00,40.00,5,2,10,0.00
2013-3-23,53,42,34,21,18,15,52,40,26,0.00,40.00,6,4,13,0.00
2013-3-24,40,36,33,34,28,21,98,77,47,0.00,40.00,10,6,21,0.37
2013-3-25,36,32,29,35,31,28,98,95,90,0.00,40.00,9,6,22,0.41
2013-3-26,39,34,31,32,29,24,96,82,59,0.00,40.00,7,5,18,0.07
2013-3-27,43,34,27,28,24,23,88,69,46,0.00,40.00,6,4,13,0.01
2013-3-28,51,46,37,24,23,22,55,41,33,0.00,40.00,6,2,12,0.00
2013-3-29,56,45,34,27,24,22,67,47,27,0.00,40.00,5,2,11,0.00
2013-3-30,60,49,37,34,31,28,76,52,33,0.00,40.00,7,4,15,0.00
2013-3-31,58,50,45,47,42,36,97,78,54,0.00,40.00,6,3,15,0.05
2013-4-1,48,43,35,39,26,16,82,56,29,0.00,40.00,8,5,17,0.03
2013-4-2,48,38,26,20,15,10,68,42,23,0.00,40.00,6,3,17,0.00
2013-4-3,48,38,29,14,12,9,47,34,20,0.00,40.00,10,5,18,0.00
2013-4-4,54,42,32,25,18,15,51,38,25,0.00,40.00,8,5,12,0.00
2013-4-5,64,49,34,30,25,21,69,43,22,0.00,40.00,9,4,17,0.00
2013-4-6,69,53,38,34,28,22,57,39,25,0.00,40.00,9,6,17,0.00
2013-4-7,73,64,57,54,42,33,80,47,38,0.00,40.00,10,6,21,0.00
2013-4-8,74,64,55,54,50,44,87,63,43,0.00,40.00,11,6,23,0.00
2013-4-9,80,69,58,57,53,50,75,58,37,0.00,40.00,12,5,24,0.00
2013-4-10,83,74,65,61,57,55,76,57,41,0.00,40.00,11,7,25,0.00
2013-4-11,72,64,58,61,57,53,99,79,54,0.00,40.00,9,5,16,0.57
2013-4-12,57,47,39,56,39,31,98,76,52,0.00,40.00,8,5,24,0.46
2013-4-13,61,46,34,34,32,29,90,61,32,0.00,40.00,9,5,23,0.01
2013-4-14,72,55,39,42,37,31,82,54,30,0.00,40.00,8,5,16,0.00
2013-4-15,68,61,56,53,49,43,75,65,51,0.00,40.00,7,5,14,0.00
2013-4-16,82,66,57,63,58,52,98,76,50,0.00,40.00,9,6,25,0.33
2013-4-17,78,65,58,63,60,58,100,86,60,0.00,40.00,8,5,16,0.40
2013-4-18,82,72,62,61,56,49,85,60,36,0.00,40.00,13,9,32,0.01
2013-4-19,74,50,39,61,40,28,96,70,46,0.00,40.00,11,8,24,0.90
2013-4-20,53,43,32,34,28,24,95,61,34,0.00,40.00,7,4,17,0.01
2013-4-21,57,46,33,28,26,24,73,49,30,0.00,40.00,9,5,15,0.00
2013-4-22,70,55,39,39,33,27,64,46,30,0.00,40.00,6,4,13,0.00
2013-4-23,70,61,48,50,44,37,72,55,48,0.00,40.00,8,5,16,0.00
2013-4-24,64,51,37,56,44,35,97,79,54,0.00,40.00,8,5,25,0.80
2013-4-25,60,46,32,36,33,29,97,67,37,0.00,40.00,8,4,21,0.01
2013-4-26,62,52,38,34,30,26,72,45,25,0.00,40.00,7,4,11,0.00
2013-4-27,61,54,45,51,42,33,82,64,49,0.00,40.00,7,4,17,0.00
2013-4-28,69,58,54,59,55,52,97,90,67,0.00,40.00,7,4,16,0.59
2013-4-29,63,57,53,56,54,52,100,90,70,0.00,40.00,4,3,8,0.03
2013-4-30,78,66,49,55,52,49,99,65,37,0.00,40.00,5,4,12,0.00
2013-5-1,82,71,58,55,54,52,83,56,35,0.00,40.00,6,4,13,0.00
2013-5-2,74,67,57,54,52,49,76,59,48,0.00,40.00,7,4,13,0.00
2013-5-3,75,66,57,56,51,37,84,61,36,0.00,40.00,8,6,16,0.00
2013-5-4,72,63,55,52,43,34,89,51,32,0.00,40.00,10,6,20,0.04
2013-5-5,54,51,49,52,50,48,98,95,90,0.00,40.00,10,6,19,2.11
2013-5-6,64,57,51,56,53,50,97,86,71,0.00,40.00,10,8,20,0.76
2013-5-7,72,62,54,58,55,52,98,80,50,0.00,40.00,6,3,12,0.03
2013-5-8,73,62,52,64,56,52,99,84,55,0.00,40.00,5,2,14,0.12
2013-5-9,81,67,56,60,55,51,98,70,38,0.00,40.00,6,3,13,0.12
2013-5-10,69,64,62,63,60,56,99,86,65,0.00,40.00,8,4,25,0.97
2013-5-11,62,55,50,62,51,41,99,87,66,0.00,40.00,6,3,15,0.30
2013-5-12,58,48,38,42,35,29,98,65,34,0.00,40.00,8,3,16,0.00
2013-5-13,63,51,37,38,33,26,94,55,26,0.00,40.00,7,3,20,0.00
2013-5-14,81,63,45,57,43,29,65,49,38,0.00,40.00,9,5,23,0.00
2013-5-15,87,74,65,59,56,49,75,55,29,0.00,40.00,9,6,25,0.00
2013-5-16,77,62,62,65,34,-100,98,74,53,0.00,40.00,7,4,21,1.97
2013-5-17,78,66,60,69,62,-100,100,91,66,0.00,40.00,7,2,14,0.40
2013-5-18,78,68,63,69,65,62,99,89,67,0.00,40.00,6,3,11,0.15
2013-5-19,84,72,62,69,66,62,100,83,53,0.00,40.00,4,2,10,0.04
2013-5-20,83,75,65,70,68,64,98,80,61,0.00,40.00,6,3,12,0.01
2013-5-21,84,73,66,67,65,62,92,76,49,0.00,40.00,7,4,17,0.00
2013-5-22,78,69,61,65,62,60,97,81,59,0.00,40.00,8,4,17,0.06
2013-5-23,71,64,56,63,58,49,99,84,62,0.00,40.00,8,4,23,0.04
2013-5-24,65,55,48,49,42,39,86,63,39,0.00,40.00,8,5,19,0.02
2013-5-25,66,55,45,52,43,41,91,67,41,0.00,40.00,7,3,12,0.00
2013-5-26,70,60,53,52,50,46,94,72,45,0.00,40.00,5,2,9,0.00
2013-5-27,83,67,54,58,53,50,91,64,35,0.00,40.00,7,5,17,0.15
2013-5-28,84,75,66,63,59,56,84,60,43,0.00,40.00,9,5,20,0.01
2013-5-29,85,76,67,65,61,57,73,60,45,0.00,40.00,7,4,16,0.01
2013-5-30,87,77,68,66,64,60,85,65,50,0.00,40.00,6,4,16,0.00
2013-5-31,81,73,67,69,65,62,95,78,59,0.00,40.00,8,4,34,0.84
2013-6-1,80,73,70,69,66,64,91,79,66,0.00,40.00,7,5,18,0.05
2013-6-2,79,70,63,67,62,58,93,76,52,0.00,40.00,6,4,16,0.00
2013-6-3,71,64,57,59,54,49,89,69,54,0.00,40.00,6,4,15,0.00
2013-6-4,75,63,52,52,49,45,94,64,36,0.00,40.00,8,4,14,0.00
2013-6-5,82,67,55,65,56,47,96,69,47,0.00,40.00,7,4,11,0.00
2013-6-6,74,68,64,69,64,62,99,89,70,0.00,40.00,5,2,12,0.70
2013-6-7,75,66,60,62,59,57,97,79,54,0.00,40.00,6,4,12,0.01
2013-6-8,77,67,57,63,59,55,94,78,56,0.00,40.00,5,3,11,0.00
2013-6-9,82,69,59,66,62,58,97,80,55,0.00,40.00,8,3,15,0.00
2013-6-10,78,69,63,67,64,62,98,86,65,0.00,40.00,7,4,15,0.91
2013-6-11,84,72,61,67,64,60,98,78,49,0.00,40.00,6,3,11,0.01
2013-6-12,91,80,69,76,70,65,91,74,55,0.00,40.00,6,3,14,0.00
2013-6-13,80,75,67,71,65,54,93,71,49,0.00,40.00,8,6,18,0.18
2013-6-14,80,68,54,60,56,51,95,67,44,0.00,40.00,6,3,13,0.02
2013-6-15,84,72,59,63,60,57,94,68,45,0.00,40.00,5,3,12,0.00
2013-6-16,78,70,66,69,65,60,96,84,69,0.00,40.00,5,2,10,0.25
2013-6-17,87,72,64,71,66,63,98,82,52,0.00,40.00,7,2,15,0.03
2013-6-18,83,71,63,68,64,61,97,80,53,0.00,40.00,5,2,22,0.54
2013-6-19,80,69,59,63,58,54,98,72,41,0.00,40.00,5,3,11,0.54
2013-6-20,85,70,61,62,57,54,87,67,36,0.00,40.00,5,3,12,0.00
2013-6-22,88,82,69,69,67,65,90,62,49,0.00,40.00,5,4,15,0.00
2013-6-23,87,76,66,69,66,63,95,75,46,0.00,40.00,6,3,13,0.00
2013-6-24,85,75,65,70,67,64,95,78,58,0.00,40.00,5,3,13,0.00
2013-6-25,90,78,67,73,70,66,97,78,53,0.00,40.00,5,3,12,0.00
2013-6-26,83,69,66,74,60,-100,100,85,42,0.00,40.00,6,3,19,1.95
2013-6-27,86,74,66,75,70,66,100,88,62,0.00,40.00,5,3,14,1.12
2013-6-28,86,76,64,71,66,61,95,75,45,0.00,40.00,15,4,33,0.04
2013-6-29,79,69,62,68,65,62,100,88,66,0.00,40.00,7,2,15,0.12
2013-6-30,82,70,61,66,64,59,100,82,45,0.00,40.00,4,3,11,0.02
2013-7-1,80,69,63,69,66,63,100,89,66,0.00,40.00,8,4,21,0.99
2013-7-2,82,70,62,70,66,62,100,87,59,0.00,40.00,6,3,11,0.90
2013-7-3,79,74,67,70,68,66,99,82,68,0.00,40.00,5,3,10,0.01
2013-7-4,71,69,67,70,68,65,100,95,87,0.00,40.00,4,3,10,1.14
2013-7-5,77,70,65,72,68,65,100,94,81,0.00,40.00,4,3,9,0.47
2013-7-6,76,70,67,72,69,66,100,97,83,0.00,40.00,5,3,12,2.65
2013-7-7,82,73,66,71,68,66,100,86,61,0.00,40.00,4,2,9,0.01
2013-7-8,88,76,67,73,69,66,99,81,56,0.00,40.00,4,2,10,0.00
2013-7-9,90,80,73,76,72,70,92,78,59,0.00,40.00,6,3,15,0.00
2013-7-10,91,76,72,78,68,-100,99,82,65,0.00,40.00,6,3,23,0.42
2013-7-11,83,73,68,71,68,60,100,84,55,0.00,40.00,6,3,16,0.01
2013-7-12,79,69,61,60,58,56,84,69,47,0.00,40.00,7,4,16,0.00
2013-7-13,84,73,64,69,63,59,90,74,54,0.00,40.00,7,5,18,0.00
2013-7-14,89,77,68,74,70,66,99,82,58,0.00,40.00,7,4,17,0.31
2013-7-15,90,78,71,76,72,70,99,82,53,0.00,40.00,4,3,10,0.31
2013-7-16,94,87,76,76,72,69,83,63,46,0.00,40.00,3,1,7,0.00
2013-7-17,93,82,73,79,74,69,96,77,57,0.00,40.00,5,2,12,0.00
2013-7-18,94,84,74,79,75,72,99,75,51,0.00,40.00,4,2,8,0.00
2013-7-19,89,80,74,77,74,70,98,85,62,0.00,40.00,5,3,18,0.05
2013-7-20,89,78,71,74,70,-100,98,81,58,0.00,40.00,6,3,15,0.23
2013-7-21,89,78,68,75,70,68,100,80,51,0.00,40.00,3,2,9,0.15
2013-7-22,82,73,69,74,71,68,99,94,75,0.00,40.00,5,2,16,2.05
2013-7-23,86,76,69,75,72,69,100,89,66,0.00,40.00,5,3,13,0.13
2013-7-24,78,70,60,69,61,57,90,75,55,0.00,40.00,6,4,14,0.01
2013-7-25,77,69,57,62,57,55,92,69,49,0.00,40.00,7,4,13,0.00
2013-7-26,80,68,58,67,60,55,94,76,52,0.00,40.00,4,2,10,0.00
2013-7-27,76,68,61,66,64,59,99,89,66,0.00,40.00,5,2,14,0.11
2013-7-28,74,64,52,59,53,50,99,71,46,0.00,40.00,5,2,13,0.06
2013-7-29,80,67,55,62,56,53,95,72,45,0.00,40.00,5,2,11,0.00
2013-7-30,81,69,60,65,61,57,95,77,52,0.00,40.00,4,2,8,0.00
2013-7-31,76,70,64,70,66,63,98,89,77,0.00,40.00,5,2,13,0.20
2013-8-1,82,73,64,69,65,60,100,81,50,0.00,40.00,5,3,14,0.02
2013-8-2,81,70,59,68,62,58,99,78,52,0.00,40.00,5,2,12,0.00
2013-8-3,81,74,66,70,67,63,95,80,64,0.00,40.00,5,2,11,0.00
2013-8-4,79,68,59,64,58,51,96,73,38,0.00,40.00,6,3,16,0.00
2013-8-5,81,69,58,64,58,55,93,70,43,0.00,40.00,5,2,11,0.00
2013-8-6,82,73,64,71,64,58,95,75,60,0.00,40.00,6,3,10,0.00
2013-8-7,85,76,69,76,72,69,100,88,68,0.00,40.00,4,2,13,0.25
2013-8-8,86,76,70,76,73,70,100,90,68,0.00,40.00,5,3,13,0.28
2013-8-9,86,75,69,75,72,69,100,91,67,0.00,40.00,5,3,13,1.30
2013-8-10,84,76,69,74,71,68,99,83,59,0.00,40.00,3,2,8,0.01
2013-8-11,87,77,70,73,71,68,99,82,53,0.00,40.00,5,2,10,0.00
2013-8-12,85,73,65,73,69,65,100,88,60,0.00,40.00,4,2,10,0.00
2013-8-13,79,72,65,71,63,-100,99,77,56,0.00,40.00,7,4,18,0.00
2013-8-14,73,60,52,53,47,-100,96,68,43,0.00,40.00,6,3,12,0.00
2013-8-15,73,58,52,57,41,-100,94,71,50,0.00,40.00,6,3,12,0.00
2013-8-16,79,65,55,60,52,-100,94,69,43,0.00,40.00,6,4,12,0.00
2013-8-17,84,69,59,64,59,55,88,73,47,0.00,40.00,5,4,11,0.00
2013-8-18,82,70,61,68,64,60,97,81,55,0.00,40.00,4,2,11,0.00
2013-8-19,85,67,62,70,51,-100,100,78,45,0.00,40.00,5,2,8,0.00
2013-8-20,85,72,65,70,65,-100,100,82,52,0.00,40.00,6,4,11,0.00
2013-8-21,83,74,67,72,69,66,97,83,63,0.00,40.00,5,3,10,0.02
2013-8-22,87,75,67,77,69,66,99,84,58,0.00,40.00,4,2,14,0.20
2013-8-23,84,74,69,70,68,66,99,82,56,0.00,40.00,5,2,12,0.16
2013-8-24,86,74,63,67,63,59,90,71,41,0.00,40.00,5,3,11,0.00
2013-8-25,88,74,61,67,60,55,93,65,36,0.00,40.00,4,2,11,0.00
2013-8-26,89,75,65,72,66,56,98,77,48,0.00,40.00,4,2,12,0.00
2013-8-27,89,76,70,76,71,69,99,87,65,0.00,40.00,5,2,9,0.00
2013-8-28,92,86,77,74,72,70,90,64,50,0.00,40.00,5,3,17,0.10
2013-8-29,86,78,70,75,71,69,98,81,60,0.00,40.00,6,3,12,0.00
2013-8-30,90,77,67,72,69,67,100,79,48,0.00,40.00,4,2,11,0.00
2013-8-31,89,76,69,76,71,67,97,87,64,0.00,40.00,7,3,25,1.07
2013-9-1,85,74,67,74,70,66,99,87,65,0.00,40.00,4,3,10,0.02
2013-9-2,87,77,70,73,70,63,99,80,57,0.00,40.00,5,3,14,0.00
2013-9-3,76,67,59,62,58,54,95,75,50,0.00,40.00,6,3,15,0.00
2013-9-4,81,68,55,63,58,54,99,76,45,0.00,40.00,4,2,8,0.00
2013-9-5,85,70,60,66,62,59,99,78,47,0.00,40.00,4,1,9,0.00
2013-9-6,82,69,56,59,54,49,85,62,35,0.00,40.00,5,4,11,0.00
2013-9-7,85,72,57,68,62,53,94,73,52,0.00,40.00,4,2,13,0.00
2013-9-17,76,62,51,56,52,50,96,73,42,0.00,40.00,8,4,15,0.03
2013-9-18,66,58,57,65,55,54,97,89,85,0.00,40.00,5,3,8,0.03
2013-9-19,79,69,65,69,66,64,98,91,68,0.00,40.00,6,3,11,0.08
2013-9-20,86,74,67,69,68,65,99,83,55,0.00,40.00,7,4,18,0.76
2013-9-21,73,65,54,68,59,50,100,85,46,0.00,40.00,7,3,16,2.25
2013-9-22,68,58,48,52,47,44,96,71,44,0.00,40.00,7,3,13,0.02
2013-9-23,71,57,47,51,47,45,91,73,44,0.00,40.00,7,4,13,0.00
2013-9-24,77,60,47,59,52,46,96,79,50,0.00,40.00,6,4,11,0.00
2013-9-25,76,65,56,58,56,50,96,75,53,0.00,40.00,7,4,14,0.00
2013-9-26,78,64,52,60,54,49,95,74,44,0.00,40.00,5,2,10,0.00
2013-9-27,81,66,56,61,55,49,97,71,38,0.00,40.00,4,2,9,0.00
2013-9-28,81,67,54,61,55,51,94,69,42,0.00,40.00,4,3,10,0.00
2013-9-29,71,63,59,61,59,57,97,87,66,0.00,40.00,7,3,14,0.02
2013-9-30,76,65,60,62,60,59,98,86,59,0.00,40.00,5,2,12,0.03
2013-10-3,82,72,68,70,67,64,99,87,59,0.00,40.00,4,2,10,0.01
2013-10-4,84,73,64,68,66,63,97,79,54,0.00,40.00,6,3,11,0.01
2013-10-5,79,71,67,70,68,66,99,90,71,0.00,40.00,5,2,10,0.96
2013-10-6,73,64,53,68,63,51,99,96,84,0.00,40.00,7,4,20,2.63
2013-10-7,63,53,45,52,46,43,98,80,52,0.00,40.00,6,3,16,0.01
2013-10-8,67,54,44,48,45,43,98,75,42,0.00,40.00,9,4,18,0.01
2013-10-9,73,58,46,50,46,43,92,67,35,0.00,40.00,7,4,13,0.00
2013-10-17,56,50,44,51,47,43,99,90,73,0.00,40.00,5,2,14,0.13
2013-10-18,65,52,43,49,44,42,99,77,44,0.00,40.00,6,3,14,0.01
2013-10-19,52,46,39,47,44,38,97,91,74,0.00,40.00,5,2,13,0.21
2013-10-20,62,49,38,42,39,36,95,72,44,0.00,40.00,8,4,16,0.01
2013-10-21,66,54,42,45,40,37,83,59,37,0.00,40.00,8,4,17,0.01
2013-10-22,55,45,32,47,35,27,97,71,38,0.00,40.00,7,2,15,0.11
2013-10-23,45,41,35,42,36,30,96,83,61,0.00,40.00,8,4,17,0.08
2013-10-24,45,39,35,36,33,27,97,80,50,0.00,40.00,6,3,15,0.05
2013-10-25,48,37,27,34,28,24,97,73,38,0.00,40.00,6,3,12,0.02
2013-10-26,54,42,30,36,29,24,78,61,44,0.00,40.00,9,5,23,0.00
2013-10-27,59,46,36,38,34,31,92,65,35,0.00,40.00,5,2,11,0.00
2013-10-28,66,50,38,36,32,-100,83,55,31,0.00,40.00,6,2,11,0.00
2013-10-29,57,50,40,51,43,33,95,76,53,0.00,40.00,7,4,11,0.00
2013-10-30,65,59,52,63,58,51,100,97,92,0.00,40.00,5,3,10,0.20
2013-10-31,65,64,61,63,58,55,96,82,70,0.00,40.00,14,8,34,1.06
2013-11-1,64,56,49,60,48,42,97,74,46,0.00,40.00,14,6,34,0.33
2013-11-2,57,48,40,45,39,34,96,72,50,0.00,40.00,7,4,18,0.00
2013-11-3,53,43,34,42,35,32,97,76,47,0.00,40.00,4,2,9,0.00
2013-11-4,59,48,38,41,37,33,87,68,48,0.00,40.00,7,4,13,0.00
2013-11-5,61,54,49,42,39,35,73,57,43,0.00,40.00,6,3,11,0.00
2013-11-6,68,58,50,60,48,33,98,72,47,0.00,40.00,9,6,21,0.46
2013-11-7,50,43,38,47,33,24,96,70,40,0.00,40.00,7,4,17,0.37
2013-11-8,53,40,29,32,28,24,96,63,35,0.00,40.00,7,3,17,0.00
2013-11-9,62,49,39,32,28,23,57,45,30,0.00,40.00,11,6,21,0.00
2013-11-10,55,47,38,39,30,24,81,54,32,0.00,40.00,8,4,21,0.00
2013-11-11,60,46,33,44,29,21,90,56,24,0.00,40.00,10,3,18,0.07
2013-11-12,40,31,24,38,22,16,96,73,48,0.00,40.00,11,6,22,0.14
2013-11-13,41,29,19,23,18,14,93,66,33,0.00,40.00,6,2,12,0.01
2013-11-14,56,40,28,20,17,13,65,44,18,0.00,40.00,9,5,19,0.00
2013-11-15,52,45,37,43,28,17,93,55,35,0.00,40.00,8,4,18,0.08
2013-11-16,60,52,46,54,50,44,98,90,81,0.00,40.00,8,5,18,0.08
2013-11-17,66,60,51,63,56,42,99,90,70,0.00,40.00,12,8,33,2.22
2013-11-18,55,46,37,42,34,26,86,64,41,0.00,40.00,7,4,23,0.08
2013-11-19,42,35,27,28,26,25,93,72,55,0.00,40.00,7,4,14,0.00
2013-11-20,53,39,27,31,28,23,83,65,43,0.00,40.00,9,5,14,0.00
2013-11-21,56,48,41,50,37,28,96,65,54,0.00,40.00,5,3,11,0.04
2013-11-22,55,50,40,55,47,29,100,91,73,0.00,40.00,8,5,21,0.14
2013-11-23,42,33,23,29,22,10,94,65,34,0.00,40.00,9,6,21,0.01
2013-11-24,29,22,14,14,8,2,74,56,43,0.00,40.00,8,4,21,0.00
2013-11-25,41,29,19,30,14,9,94,56,34,0.00,40.00,9,4,19,0.00
2013-11-26,33,32,30,32,31,28,98,96,86,0.00,40.00,5,2,9,0.08
2013-11-27,31,27,20,29,21,13,93,79,67,0.00,40.00,9,5,18,0.07
2013-11-28,35,24,15,18,14,10,84,66,48,0.00,40.00,7,3,15,0.05
2013-11-29,41,31,22,23,20,15,77,63,47,0.00,40.00,6,3,11,0.03
2013-11-30,53,38,26,28,24,20,83,61,38,0.00,40.00,7,4,15,0.02
2013-12-1,51,44,39,35,30,24,68,57,49,0.00,40.00,7,4,13,0.00
2013-12-2,53,45,37,39,36,32,82,70,58,0.00,40.00,4,3,8,0.00
2013-12-3,53,47,39,47,43,37,98,85,75,0.00,40.00,5,3,11,0.00
2013-12-12,27,18,6,11,6,1,86,61,37,0.00,40.00,6,3,12,0.02
2013-12-13,42,30,20,31,15,9,91,57,36,0.00,40.00,5,4,12,0.14
2013-12-14,40,36,32,40,35,30,100,97,86,0.00,40.00,10,5,18,0.56
2013-12-15,33,29,28,32,24,21,96,84,69,0.00,40.00,8,6,20,0.04
2013-12-16,37,32,27,32,29,22,95,87,79,0.00,40.00,5,3,13,0.02
2013-12-17,37,32,30,34,28,24,92,84,75,0.00,40.00,7,4,17,0.01
2013-12-18,40,32,23,24,19,14,92,63,36,0.00,40.00,7,5,15,0.00
2013-12-19,57,47,35,40,28,18,59,47,43,0.00,40.00,9,6,20,0.00
2013-12-20,59,54,47,57,46,31,98,77,44,0.00,40.00,8,6,18,0.08
2013-12-21,68,61,57,63,59,55,99,94,82,0.00,40.00,13,7,31,1.98
2013-12-22,60,53,40,59,49,39,98,87,73,0.00,40.00,13,7,30,0.79
2013-12-23,39,33,26,35,26,18,93,75,61,0.00,40.00,7,5,16,0.02
2013-12-24,25,20,13,21,11,4,89,70,52,0.00,40.00,7,4,17,0.00
2013-12-25,37,26,16,17,13,9,80,58,35,0.00,40.00,7,5,14,0.00
2013-12-26,43,35,30,26,22,18,77,61,41,0.00,40.00,7,4,18,0.00
2013-12-27,50,37,27,27,24,21,80,61,41,0.00,40.00,7,4,14,0.00
2013-12-28,52,41,33,29,26,23,67,54,41,0.00,40.00,7,4,15,0.00
2013-12-29,43,39,32,40,36,26,99,91,52,0.00,40.00,7,4,15,0.41
2013-12-30,32,27,22,30,23,16,93,82,76,0.00,40.00,6,4,14,0.01
2013-12-31,37,27,20,20,17,15,86,65,45,0.00,40.00,7,4,18,0.00
2014-1-1,47,35,27,28,23,20,83,62,37,0.00,40.00,7,3,15,0.00
2014-1-2,37,26,13,32,22,9,98,87,56,0.00,40.00,10,5,24,0.01